Regional Weather Roundup
Issued by NWS Boston, MA

Home | Current Version | Previous Version | Text Only | Print | Product List | Glossary On
Versions: 1 2 3 4 5 6 7 8 9 10 11 12 13 14 15 16 17 18 19 20 21 22 23 24 25 26 27 28 29 30 31 32 33 34 35 36 37 38 39 40 41
000
ASUS41 KBOX 271510
RWRBOX

REGIONAL WEATHER ROUNDUP
NATIONAL WEATHER SERVICE TAUNTON MA
1000 AM EST SAT DEC 27 2014

NOTE:  "FAIR" INDICATES FEW OR NO CLOUDS BELOW 12,000 FEET WITH NO
SIGNIFICANT WEATHER AND/OR OBSTRUCTIONS TO VISIBILITY.  THE FOLLOWING
OBSERVATION LOCATIONS DO NOT REPORT PRESENT WEATHER...PROVINCETOWN...
SMITHFIELD...BLOCK ISLAND...KEENE...AND OXFORD.

MAZALL-271600-
EASTERN MASSACHUSETTS

CITY           SKY/WX    TMP DP  RH WIND       PRES   REMARKS
BOSTON         MOSUNNY   45  30  55 W10       30.22R
BEVERLY        SUNNY     44  30  57 W7        30.20S
LAWRENCE       SUNNY     43  31  62 SW5       30.22S
BEDFORD        SUNNY     43  30  60 SW6       30.21R
BLUE HILL        N/A     41  29  62 W6        30.20R
NORWOOD        SUNNY     44  30  57 W6        30.22R
MARSHFIELD     SUNNY     45  32  61 W6        30.24R
PLYMOUTH       SUNNY     45  32  60 W7        30.23R
TAUNTON        SUNNY     44  31  60 W5        30.23R
NEW BEDFORD    SUNNY     45  33  63 SW6       30.23R
$$

MAZALL-271600-
CAPE COD AND THE ISLANDS

CITY           SKY/WX    TMP DP  RH WIND       PRES   REMARKS
FALMOUTH       SUNNY     45  32  61 W8        30.23R
HYANNIS        SUNNY     47  31  53 W8        30.22R
CHATHAM        SUNNY     46  34  62 W5        30.23R
PROVINCETOWN   SUNNY     45  34  65 W9        30.22S
NANTUCKET      SUNNY     49  35  58 W10       30.24R
MARTHAS VNYRD  SUNNY     48  32  53 W8        30.24R
$$

MAZALL-271600-
CENTRAL AND WESTERN MASSACHUSETTS

CITY           SKY/WX    TMP DP  RH WIND       PRES   REMARKS
WORCESTER      SUNNY     42  30  62 W13       30.19R
FITCHBURG      SUNNY     44  30  57 VRB5      30.22R
ORANGE         SUNNY     36  31  82 CALM      30.21R
SPRINGFIELD    SUNNY     38  30  74 S2        30.23R
WESTFIELD      SUNNY     42  32  67 SW6       30.23R
NORTH ADAMS    CLOUDY    39  31  72 VRB3      30.21R
PITTSFIELD     MOSUNNY   40  30  67 SW6       30.19R
$$

RIZALL-271600-
RHODE ISLAND

CITY           SKY/WX    TMP DP  RH WIND       PRES   REMARKS
PROVIDENCE     MOSUNNY   46  30  53 W7        30.24R
NEWPORT        SUNNY     45  31  58 NW3       30.24R
BLOCK ISLAND   SUNNY     46  34  61 W8        30.25S
SMITHFIELD     SUNNY     45  27  49 W6        30.22R
WESTERLY       SUNNY     43  31  62 W5        30.26R
$$

CTZALL-271600-
CONNECTICUT

CITY           SKY/WX    TMP DP  RH WIND       PRES   REMARKS
BRADLEY INTL   PTSUNNY   41  31  67 S5        30.24R
HARTFORD       SUNNY     40  31  70 S5        30.26R
BRIDGEPORT     SUNNY     47  36  65 CALM      30.26S
DANBURY        SUNNY     41  32  70 CALM      30.26R
GROTON         SUNNY     42  36  79 CALM      30.25S
NEW HAVEN      MOSUNNY   46  32  58 W3        30.26S
CHESTER        FAIR      45  32  61 W3        30.25S
MERIDEN        SUNNY     40  31  70 S3        30.26S
WILLIMANTIC    SUNNY     35  29  78 CALM      30.25S
OXFORD         MOSUNNY   43  28  56 CALM      30.24F
$$

MEZ002-015-021-024-NHZ003-005-008-011-012-014-VTZ005-008-271600-
NORTHERN NEW ENGLAND

CITY           SKY/WX    TMP DP  RH WIND       PRES   REMARKS
PORTLAND ME    SUNNY     43  32  65 W7        30.17S
BANGOR ME      PTSUNNY   43  29  57 W9        30.13R
CONCORD NH     SUNNY     40  31  70 CALM      30.19S
MANCHESTER NH  MOSUNNY   40  29  64 S6        30.19S
NASHUA NH      SUNNY     45  30  55 CALM      30.21S
PORTSMOUTH NH  MOSUNNY   44  30  59 SW8       30.17S
JAFFREY NH     SUNNY     39  29  67 SW3       30.19R
KEENE NH       SUNNY     34  30  86 CALM      30.21S
BURLINGTON VT  CLOUDY    40  29  64 S6        30.18S
MT. WASHINGTON NOT AVBL
$$

NYZ052-076-271600-
EASTERN NEW YORK

CITY           SKY/WX    TMP DP  RH WIND       PRES   REMARKS
ALBANY         CLOUDY    36  30  79 CALM      30.24R
NEW YORK CITY  PTSUNNY   48  32  53 NW3       30.26S
$$

ANZALL-271600-
MARINE OBSERVATIONS

STATION/POSITION TIME  TEMP    WIND        PRES    VSBY  WAVE
                       AIR SEA DIR/SP/G                  HT/PER
                 (UTC) (F)     (DEG/KT/KT) (MB)    (MI)  (FT/S)
BOSTON BUOY      1450   42 44  270/ 12/ 12 1023.3R         2/14
BUZZARDS BAY     1400          270/  7/  8 1024.4R
NANTUCKET SOUND  1450   44 44  270/ 10/ 12 1023.5R         1/15
MASS BAY-STELLWA 1404   42 44  270/ 12/ 14   N/A     3/16  2/ 3
ISLE OF SHOALS   1500   42     260/ 11/ 12 1021.5R
S OF BLOCK IS    1408      51                N/A           4/15
$$

......................KEY.........................
  SKY/WX - SKY CONDITION/PRESENT WEATHER
  TMP    - TEMPERATURE IN FAHRENHEIT
  DWPT   - DEWPOINT IN FAHRENHEIT
  RH     - RELATIVE HUMIDITY IN PERCENT
  WIND   - DIRECTION AND SPEED IN MPH
  PRES   - MEAN SEA LEVEL PRESSURE IN INCHES OF HG
  WCI    - WIND CHILL INDEX
  VSB    - VISIBILITY IN MILES
  HX     - HEAT INDEX
  TC     - TEMPERATURE IN CELSIUS
  VRB    - VARIABLE WIND DIRECTION
  N/A    - NOT AVAILABLE



USA.gov is the U.S. government's official web portal to all federal, state and local government web resources and services.